Sturgis, MI

12:00 AM EST on February 27, 2017 (GMT -0500)
Kirsch Municipal

Weather History for KIRS - March, 2014

Change the Weather History Date:

Sunday, March 30, 2014

  Actual Average (KHAI) Record (KHAI)
Temperature  
Mean Temperature 38 °F -  
Max Temperature 51 °F 50 °F 79 °F (1986)
Min Temperature 24 °F 33 °F 3 °F (1954)
Degree Days  
Heating Degree Days 28    
Moisture  
Dew Point 23 °F    
Average Humidity 62    
Maximum Humidity 93    
Minimum Humidity 34    
Precipitation  
Precipitation 0.00 in - - ()
Sea Level Pressure  
Sea Level Pressure 30.17 in    
Wind  
Wind Speed 2 mph (NNW)    
Max Wind Speed 8 mph    
Max Gust Speed -    
Visibility 10 miles    
Events      
Averages and records for this station are not official NWS values.
T = Trace of Precipitation, MM = Missing Value Source: NWS Daily Summary

Daily Weather History Graph

Daily Weather History Graph

Search for Another Location

Airport or City:

Trip Planner

Search our weather history database for the weather conditions in past years. The results will help you decide how hot, cold, wet, or windy it might be!

Date:

Astronomy

Mar. 30, 2014 Rise Set
Actual Time 7:27 AM EDT 8:05 PM EDT
Civil Twilight 6:59 AM EDT 8:33 PM EDT
Nautical Twilight 6:26 AM EDT 9:06 PM EDT
Astronomical Twilight 5:52 AM EDT 9:40 PM EDT
Moon 7:13 AM EDT (3/30) 8:17 PM EDT (3/30)
Length of Visible Light 13h 33m
Length of Day
12h 37m
Waning Crescent, 0% of the Moon is Illuminated
Mar 30
Waning Crescent
Mar 30
New
Apr 7
First Quarter
Apr 15
Full
Apr 22
Last Quarter

Hourly Weather History & Observations

Time (EDT) Temp. Windchill Dew Point Humidity Pressure Visibility Wind Dir Wind Speed Gust Speed Precip Events Conditions
12:14 AM 28.4 °F - 24.8 °F 86% 30.18 in 10.0 mi Calm Calm - N/A   Clear
12:35 AM 28.4 °F 24.6 °F 26.6 °F 93% 30.18 in 10.0 mi North 3.5 mph - N/A   Clear
12:54 AM 28.4 °F - 24.8 °F 86% 30.18 in 10.0 mi Calm Calm - N/A   Clear
1:14 AM 28.4 °F 24.6 °F 24.8 °F 86% 30.19 in 10.0 mi NNW 3.5 mph - N/A   Clear
1:35 AM 28.4 °F 23.3 °F 24.8 °F 86% 30.19 in 10.0 mi North 4.6 mph - N/A   Clear
1:54 AM 28.4 °F - 24.8 °F 86% 30.19 in 10.0 mi Calm Calm - N/A   Clear
2:15 AM 28.4 °F 24.6 °F 24.8 °F 86% 30.19 in 10.0 mi North 3.5 mph - N/A   Clear
2:35 AM 28.4 °F 23.3 °F 24.8 °F 86% 30.19 in 10.0 mi North 4.6 mph - N/A   Clear
2:54 AM 26.6 °F - 24.8 °F 93% 30.19 in 10.0 mi Calm Calm - N/A   Clear
3:15 AM 26.6 °F - 23.0 °F 86% 30.19 in 10.0 mi Calm Calm - N/A   Clear
3:35 AM 26.6 °F - 23.0 °F 86% 30.19 in 10.0 mi Calm Calm - N/A   Clear
3:54 AM 26.6 °F - 23.0 °F 86% 30.18 in 10.0 mi Calm Calm - N/A   Clear
4:15 AM 24.8 °F 19.1 °F 21.2 °F 86% 30.18 in 10.0 mi NW 4.6 mph - N/A   Clear
4:35 AM 24.8 °F - 21.2 °F 86% 30.19 in 10.0 mi Calm Calm - N/A   Clear
4:54 AM 24.8 °F 19.1 °F 21.2 °F 86% 30.19 in 10.0 mi NNW 4.6 mph - N/A   Clear
5:15 AM 24.8 °F 19.1 °F 21.2 °F 86% 30.20 in 10.0 mi NW 4.6 mph - N/A   Clear
5:34 AM 24.8 °F 20.5 °F 21.2 °F 86% 30.20 in 10.0 mi NW 3.5 mph - N/A   Clear
5:55 AM 24.8 °F 20.5 °F 21.2 °F 86% 30.20 in 10.0 mi NNW 3.5 mph - N/A   Clear
6:15 AM 24.8 °F 20.5 °F 21.2 °F 86% 30.21 in 10.0 mi NNW 3.5 mph - N/A   Clear
6:34 AM 24.8 °F - 21.2 °F 86% 30.20 in 10.0 mi Calm Calm - N/A   Clear
6:55 AM 24.8 °F - 21.2 °F 86% 30.20 in 10.0 mi Calm Calm - N/A   Clear
7:15 AM 24.8 °F - 21.2 °F 86% 30.20 in 10.0 mi Calm Calm - N/A   Clear
7:34 AM 24.8 °F - 21.2 °F 86% 30.20 in 10.0 mi Calm Calm - N/A   Clear
7:55 AM 24.8 °F - 21.2 °F 86% 30.20 in 10.0 mi Calm Calm - N/A   Clear
8:15 AM 26.6 °F 22.6 °F 23.0 °F 86% 30.21 in 10.0 mi North 3.5 mph - N/A   Clear
8:34 AM 26.6 °F 22.6 °F 23.0 °F 86% 30.20 in 10.0 mi NNE 3.5 mph - N/A   Clear
8:55 AM 28.4 °F 22.2 °F 21.2 °F 74% 30.20 in 10.0 mi NE 5.8 mph - N/A   Clear
9:14 AM 30.2 °F 24.3 °F 21.2 °F 69% 30.20 in 10.0 mi NNE 5.8 mph - N/A   Clear
9:35 AM 30.2 °F 24.3 °F 21.2 °F 69% 30.21 in 10.0 mi NNE 5.8 mph - N/A   Clear
9:55 AM 32.0 °F 24.8 °F 21.2 °F 64% 30.22 in 10.0 mi North 8.1 mph - N/A   Clear
10:14 AM 33.8 °F 29.6 °F 21.2 °F 60% 30.23 in 10.0 mi NNW 4.6 mph - N/A   Clear
10:35 AM 35.6 °F 30.7 °F 19.4 °F 52% 30.22 in 10.0 mi North 5.8 mph - N/A   Clear
10:55 AM 35.6 °F 32.8 °F 19.4 °F 52% 30.22 in 10.0 mi North 3.5 mph - N/A   Clear
11:14 AM 37.4 °F 32.1 °F 17.6 °F 45% 30.22 in 10.0 mi North 6.9 mph - N/A   Clear
11:35 AM 37.4 °F 32.8 °F 15.8 °F 41% 30.21 in 10.0 mi North 5.8 mph - N/A   Clear
11:54 AM 39.2 °F 35.9 °F 17.6 °F 42% 30.20 in 10.0 mi North 4.6 mph - N/A   Clear
12:15 PM 39.2 °F 35.9 °F 17.6 °F 42% 30.20 in 10.0 mi NNW 4.6 mph - N/A   Clear
12:35 PM 41.0 °F - 17.6 °F 39% 30.19 in 10.0 mi Calm Calm - N/A   Clear
12:54 PM 42.8 °F 41.1 °F 19.4 °F 39% 30.19 in 10.0 mi NW 3.5 mph - N/A   Clear
1:15 PM 42.8 °F - 17.6 °F 36% 30.19 in 10.0 mi Calm Calm - N/A   Clear
1:35 PM 42.8 °F - 19.4 °F 39% 30.18 in 10.0 mi Calm Calm - N/A   Clear
1:54 PM 44.6 °F - 19.4 °F 37% 30.19 in 10.0 mi Calm Calm - N/A   Clear
2:15 PM 46.4 °F - 21.2 °F 37% 30.19 in 10.0 mi Calm Calm - N/A   Clear
2:35 PM 46.4 °F 44.3 °F 21.2 °F 37% 30.19 in 10.0 mi WNW 4.6 mph - N/A   Clear
2:54 PM 46.4 °F 44.3 °F 21.2 °F 37% 30.17 in 10.0 mi NW 4.6 mph - N/A   Clear
3:15 PM 48.2 °F - 23.0 °F 37% 30.16 in 10.0 mi WSW 5.8 mph - N/A   Clear
3:34 PM 48.2 °F - 21.2 °F 34% 30.15 in 10.0 mi WSW 6.9 mph - N/A   Clear
3:55 PM 48.2 °F - 21.2 °F 34% 30.14 in 10.0 mi Calm Calm - N/A   Clear
4:15 PM 48.2 °F - 24.8 °F 40% 30.13 in 10.0 mi West 5.8 mph - N/A   Clear
4:35 PM 50.0 °F - 24.8 °F 37% 30.12 in 10.0 mi Calm Calm - N/A   Clear
4:55 PM 50.0 °F - 24.8 °F 37% 30.12 in 10.0 mi Calm Calm - N/A   Clear
5:15 PM 50.0 °F - 24.8 °F 37% 30.11 in 10.0 mi Calm Calm - N/A   Clear
5:35 PM 51.8 °F - 24.8 °F 35% 30.10 in 10.0 mi Calm Calm - N/A   Clear
5:55 PM 51.8 °F - 24.8 °F 35% 30.10 in 10.0 mi Calm Calm - N/A   Clear
6:15 PM 51.8 °F - 24.8 °F 35% 30.10 in 10.0 mi SSW 4.6 mph - N/A   Clear
6:35 PM 51.8 °F - 24.8 °F 35% 30.10 in 10.0 mi Calm Calm - N/A   Clear
6:55 PM 51.8 °F - 24.8 °F 35% 30.10 in 10.0 mi Calm Calm - N/A   Clear
7:15 PM 51.8 °F - 28.4 °F 41% 30.10 in 10.0 mi Calm Calm - N/A   Clear
7:35 PM 48.2 °F - 30.2 °F 50% 30.11 in 10.0 mi SSW 4.6 mph - N/A   Clear
7:55 PM 46.4 °F 44.3 °F 30.2 °F 53% 30.11 in 10.0 mi SSW 4.6 mph - N/A   Clear
8:14 PM 46.4 °F - 30.2 °F 53% 30.12 in 10.0 mi Calm Calm - N/A   Clear
8:35 PM 44.6 °F - 28.4 °F 53% 30.11 in 10.0 mi Calm Calm - N/A   Clear
8:55 PM 44.6 °F - 28.4 °F 53% 30.11 in 10.0 mi Calm Calm - N/A   Clear
9:14 PM 44.6 °F 43.1 °F 28.4 °F 53% 30.11 in 10.0 mi SSE 3.5 mph - N/A   Clear
9:35 PM 44.6 °F 41.4 °F 28.4 °F 53% 30.10 in 10.0 mi SSE 5.8 mph - N/A   Clear
9:55 PM 44.6 °F 42.2 °F 28.4 °F 53% 30.11 in 10.0 mi SE 4.6 mph - N/A   Clear
10:15 PM 42.8 °F 40.1 °F 28.4 °F 57% 30.10 in 10.0 mi SE 4.6 mph - N/A   Clear
10:35 PM 42.8 °F 41.1 °F 28.4 °F 57% 30.10 in 10.0 mi SSE 3.5 mph - N/A   Clear
10:54 PM 39.2 °F - 28.4 °F 65% 30.10 in 10.0 mi Calm Calm - N/A   Clear
11:15 PM 37.4 °F 34.9 °F 28.4 °F 70% 30.11 in 10.0 mi South 3.5 mph - N/A   Clear
11:35 PM 37.4 °F - 28.4 °F 70% 30.11 in 10.0 mi Calm Calm - N/A   Clear
11:54 PM 39.2 °F 35.9 °F 26.6 °F 61% 30.11 in 10.0 mi South 4.6 mph - N/A   Clear